This is the latest recevied weather packets stored in our database for station/object KI6SYE. If no packets are shown the sender has not sent any weather packets the latest 10 day(s).
| Time | Temp. | Humidity | Pressure | Rain* | Wind** | Luminosity | Snow |
|---|---|---|---|---|---|---|---|
| 1788306748 | 22.22° C | 77% | 1014 hPa | 0 mm | - | 287 W/m² | - |
| 1788306442 | 22.78° C | 76% | 1014 hPa | 0 mm | - | 298 W/m² | - |
| 1788306141 | 22.78° C | 75% | 1013.9 hPa | 0 mm | - | 315 W/m² | - |
| 1788305837 | 22.78° C | 76% | 1014.1 hPa | 0 mm | - | 333 W/m² | - |
| 1788305533 | 22.22° C | 76% | 1014.1 hPa | 0 mm | - | 346 W/m² | - |
| 1788305232 | 22.22° C | 76% | 1014.3 hPa | 0 mm | - | 362 W/m² | - |
| 1788304928 | 22.22° C | 76% | 1014.2 hPa | 0 mm | - | 376 W/m² | - |
| 1788304624 | 22.78° C | 76% | 1014.2 hPa | 0 mm | - | 394 W/m² | - |
| 1788304320 | 22.78° C | 74% | 1014.3 hPa | 0 mm | - | 404 W/m² | - |
| 1788304016 | 22.78° C | 76% | 1014.4 hPa | 0 mm | - | 421 W/m² | - |
| 1788303715 | 22.78° C | 75% | 1014.2 hPa | 0 mm | - | 435 W/m² | - |
| 1788303410 | 22.78° C | 76% | 1014.3 hPa | 0 mm | - | 450 W/m² | - |
| 1788303105 | 22.22° C | 77% | 1014.4 hPa | 0 mm | - | 460 W/m² | - |
| 1788302801 | 22.22° C | 76% | 1014.1 hPa | 0 mm | - | 232 W/m² | - |
| 1788302497 | 22.22° C | 77% | 1014.2 hPa | 0 mm | - | 492 W/m² | - |
| 1788302192 | 22.22° C | 77% | 1014.4 hPa | 0 mm | - | 240 W/m² | - |
| 1788301887 | 22.22° C | 76% | 1014.3 hPa | 0 mm | - | 53 W/m² | - |
| 1788301584 | 22.22° C | 78% | 1014.4 hPa | 0 mm | - | 59 W/m² | - |
| 1788301279 | 22.22° C | 77% | 1014.7 hPa | 0 mm | - | 58 W/m² | - |
| 1788300975 | 22.78° C | 77% | 1014.4 hPa | 0 mm | - | 369 W/m² | - |
| 1788300671 | 22.78° C | 76% | 1014.4 hPa | 0 mm | - | 569 W/m² | - |
| 1788300370 | 23.33° C | 74% | 1014.6 hPa | 0 mm | - | 575 W/m² | - |
| 1788300069 | 22.78° C | 75% | 1014.7 hPa | 0 mm | - | 593 W/m² | - |
| 1788299767 | 22.78° C | 74% | 1014.8 hPa | 0 mm | - | 602 W/m² | - |
| 1788299463 | 23.33° C | 73% | 1014.8 hPa | 0 mm | - | 613 W/m² | - |
* Rain latest hour (hover to see other rain measurements)
** Current wind speed in m/s (hover to see current wind gust speed)